Probability
0 0 0 0 0 0 0 0 0 0 0 0 0 0 0 0 0 0 0 0 0 0 0 0 0 0 0 0 0 0 0 0 0 0 0 0 0 0 0 0 0 0 0 0
0 0 0 0 0 0 0 0 0 0 0 0 0 0 0 0 0 0 0 0 0 0 0 0 0 0 0 0 0 0 0 0 0 0 0 0 0 0 0 0 0 0 0 0
0 0 0 0 0 0 0 0 0 0 0 0 0 0 0 0 0 0 0 0 0 0 0 0 0 0 0 0 0 0 0 0 0 0 0 0 0 0 0 0 0 0 0 0
0 0 0 0 0 0 0 0 0 0 0 0 0 0 0 0 0 0 0 0 0 0 0 0 0 0 0 0 0 0 0 0 0 0 0 0 0 0 0 0 0 0 0 0
0 0 0 0 0 0 0 0 0 0 0 0 0 0 0 0 0 0 0 0 0 0 0 0 0 0 0 0 0 0 0 0 0 0 0 0 0 0 0 0 0 0 0 0
0 0 0 0 0 0 0 0 0 0 0 0 0 0 0 0 0 0 0 0 0 0 0 0 0 0 0 0 0 0 0 0 0 0 0 0 0 0 0 0 0 0 0 0
0 0 0 0 0 0 0 0 0 0 0 0 0 0 0 0 0 0 0 0 0 0 0 0 0 0 0 0 0 0 0 0 0 0 0 0 0 0 0 0 0 0 0 0
0 0 0 0 0 0 0 0 0 0 0 0 0 0 0 0 0 0 0 0 0 0 0 0 0 0 0 0 0 0 0 0 0 0 0 0 0 0 0 0 0 0 0 0
0 0 0 0 0 0 0 0 0 0 0 0 0 0 0 0 0 0 0 0 0 0 0 0 0 0 0 0 0 0 0 0 0 0 0 0 0 0 0 0 0 0 0 0
0 0 0 0 0 0 0 0 0 0 0 0 0 0 0 0 0 0 0 0 0 0 0 0 0 0 0 0 0 0 0 0 0 0 0 0 0 0 0 0 0 0 0 0
0 0 0 0 0 0 0 0 0 0 0 0 0 0 0 0 0 0 0 0 0 0 0 0 0 0 0 0 0 0 0 0 0 0 0 0 0 0 0 0 0 0 0 0
0 0 0 0 0 0 0 0 0 0 0 0 0 0 0 0 0 0 0 0 0 0 0 0 0 0 0 0 0 0 0 0 0 0 0 0 0 0 0 0 0 0 0 0
0 0 0 0 0 0 0 0 0 0 0 0 0 0 0 0 0 0 0 0 0 0 0 0 0 0 0 0 0 0 0 0 0 0 0 0 0 0 0 0 0 0 0 0
0 0 0 0 0 0 0 0 0 0 0 0 0 0 0 0 0 0 0 0 0 0 0 0 0 0 0 0 0 0 0 0 0 0 0 0 0 0 0 0 0 0 0 0
0 0 0 0 0 0 0 0 0 0 0 0 0 0 0 0 0 0 0 0 0 0 0 0 0 0 0 0 0 0 0 0 0 0 0 0 0 0 0 0 0 0 0 0
0 0 0 0 0 0 0 0 0 0 0 0 0 0 0 0 0 0 0 0 0 0 0 0 0 0 0 0 0 0 0 0 0 0 0 0 0 0 0 0 0 0 0 0
0 0 0 0 0 0 0 0 0 0 0 0 0 0 0 0 0 0 0 0 0 0 0 0 0 0 0 0 0 0 0 0 0 0 0 0 0 0 0 0 0 0 0 0
0 0 0 0 0 0 0 0 0 0 0 0 0 0 0 0 0 0 0 0 0 0 0 0 0 0 0 0 0 0 0 0 0 0 0 0 0 0 0 0 0 0 0 0
0 0 0 0 0 0 0 0 0 0 0 0 0 0 0 0 0 0 0 0 0 0 0 0 0 0 0 0 0 0 0 0 0 0 0 0 0 0 0 0 0 0 0 0
0 0 0 0 0 0 0 0 0 0 0 0 0 0 0 0 0 0 0 0 0 0 0 0 0 0 0 0 0 0 0 0 0 0 0 0 0 0 0 0 0 0 0 0
0 0 0 0 0 0 0 0 0 0 0 0 0 0 0 0 0 0 0 0 0 0 0 0 0 0 0 0 0 0 0 0 0 0 0 0 0 0 0 0 0 0 0 0
0 0 0 0 0 0 0 0 0 0 0 0 0 0 0 0 0 0 0 0 0 0 0 0 0 0 0 0 0 0 0 0 0 0 0 0 0 0 0 0 0 0 0 0
0 0 0 0 0 0 0 0 0 0 0 0 0 0 0 0 0 0 0 0 0 0 0 0 0 0 0 0 0 0 0 0 0 0 0 0 0 0 0 0 0 0 0 0
0 0 0 0 0 0 0 0 0 0 0 0 0 0 0 0 0 0 0 0 0 0 0 0 0 0 0 0 0 0 0 0 0 0 0 0 0 0 0 0 0 0 0 0
0 0 0 0 0 0 0 0 0 0 0 0 0 0 0 0 0 0 0 0 0 0 0 0 0 0 0 0 0 0 0 0 0 0 0 0 0 0 0 0 0 0 0 0
0 0 0 0 0 0 0 0 0 0 0 0 0 0 0 0 0 0 0 0 0 0 0 0 0 0 0 0 0 0 0 0 0 0 0 0 0 0 0 0 0 0 0 0
0 0 0 0 0 0 0 0 0 0 0 0 0 0 0 0 0 0 0 0 0 0 0 0 0 0 0 0 0 0 0 0 0 0 0 0 0 0 0 0 0 0 0 0
Wind_Speed
2 1 1 3 4 4 5 6 7 7 6 10 7 5 4 3 3 2 2 2 2 2 2 2 2 2 2 2 2 2 2 2 3 3 3 3 3 3 4 4 4 4 4 4
2 1 2 4 7 6 6 5 7 6 10 10 5 2 3 4 4 4 4 4 3 3 2 2 2 2 2 2 2 2 1 2 2 2 2 3 3 3 3 4 4 4 4 4
3 4 4 7 8 8 6 7 8 10 10 4 2 4 4 5 5 5 5 4 4 4 3 3 2 2 2 2 1 1 1 2 2 2 2 3 3 3 3 3 3 4 4 4
1 5 4 8 1 5 5 6 8 8 7 5 5 3 4 5 6 6 5 5 4 3 3 2 2 1 1 1 1 1 1 2 2 2 2 3 3 3 3 3 3 3 4 4
3 1 10 9 4 6 6 7 9 11 10 6 2 3 5 5 5 7 6 5 4 3 3 2 1 1 0 0 1 1 2 2 2 2 2 2 2 3 2 2 3 3 3 3
4 2 7 6 2 4 3 7 6 9 9 6 3 1 5 3 3 4 3 3 2 2 1 1 1 1 1 1 1 2 3 2 2 1 1 2 2 2 2 2 2 3 3 3
4 5 12 8 3 5 4 8 3 7 7 7 8 7 3 1 1 2 2 2 2 2 2 2 1 1 1 1 2 3 2 2 1 1 1 1 1 1 2 2 2 2 3 4
6 5 13 6 9 10 10 2 3 5 6 7 7 4 3 3 2 2 2 2 2 2 2 1 1 2 2 3 3 1 1 1 1 1 1 1 1 1 1 1 2 2 3 4
13 12 5 8 10 7 3 4 4 4 5 6 5 5 5 4 4 3 3 3 3 3 2 1 1 2 3 3 1 0 0 1 1 1 1 1 1 1 1 1 1 2 2 3
7 12 8 9 9 7 6 6 5 5 5 5 6 6 5 5 4 4 3 3 3 3 3 3 2 2 3 1 0 1 1 1 1 1 1 1 1 1 1 1 1 2 2 3
9 10 7 8 11 12 9 7 6 5 5 7 6 6 6 5 5 5 4 3 3 4 4 4 2 3 2 1 1 1 1 1 1 1 1 1 1 1 2 2 2 3 2 2
13 10 8 7 6 8 8 9 9 7 6 5 7 7 6 5 5 4 4 3 3 4 4 4 3 3 2 2 2 2 2 1 1 1 1 1 1 2 3 4 5 6 5 4
9 5 7 6 4 5 7 8 7 7 8 6 6 6 6 5 4 3 4 4 5 5 5 4 3 3 3 2 3 3 3 2 1 1 1 1 1 1 3 4 4 5 6 6
7 4 6 7 7 5 5 5 4 4 5 5 5 4 4 4 3 4 5 5 5 4 4 4 4 5 3 3 4 3 3 2 2 2 2 2 2 2 2 2 3 4 5 7
10 10 10 6 4 4 3 3 3 5 5 5 4 5 5 6 6 6 5 3 3 3 4 4 5 5 3 4 4 4 3 2 2 2 2 2 2 2 2 2 3 3 3 4
7 8 8 8 9 7 5 6 7 8 7 6 6 6 6 6 5 4 3 4 4 5 6 5 6 5 4 4 4 3 3 3 3 2 2 2 2 2 2 2 3 3 3 4
8 9 9 10 11 10 9 10 10 9 7 7 7 6 5 4 4 5 5 4 5 6 5 6 6 3 4 5 5 3 3 3 3 2 2 2 2 3 3 3 3 4 4 4
11 11 10 9 9 10 9 8 8 8 8 7 5 5 6 7 7 7 5 4 3 4 6 6 5 4 4 5 5 4 3 3 3 3 3 3 3 3 3 3 4 4 4 4
10 10 9 9 9 8 8 8 8 7 6 6 6 7 7 7 6 5 4 4 5 6 6 5 5 4 4 5 5 3 3 3 3 3 2 3 3 3 3 3 4 4 4 3
8 8 8 7 6 6 7 6 5 5 5 6 6 5 5 5 5 5 5 5 6 5 3 3 4 4 4 4 5 3 4 4 4 3 3 3 3 3 3 4 4 4 4 4
8 7 6 6 5 4 5 5 6 6 5 6 7 7 6 5 5 5 4 5 5 4 3 4 3 3 3 4 5 4 4 4 4 4 4 4 4 4 4 4 4 4 4 4
6 6 6 5 5 4 3 3 4 5 5 5 5 5 5 5 4 4 5 5 3 3 3 3 3 3 4 4 4 4 4 4 4 3 4 4 4 4 4 4 4 4 4 4
4 5 5 5 5 3 2 2 3 4 5 5 6 6 6 5 4 4 4 3 2 3 3 3 3 4 4 3 3 3 4 4 4 4 4 4 4 4 4 4 4 4 4 4
4 3 3 3 3 3 3 3 2 2 3 3 3 4 4 3 3 3 2 2 3 3 3 3 4 4 4 3 3 3 3 4 4 3 3 3 3 4 4 4 4 4 4 4
3 3 3 4 4 3 3 2 2 2 2 1 2 2 2 2 3 2 2 2 3 3 2 3 3 3 3 2 3 3 3 3 3 3 3 3 3 4 4 4 4 4 4 4
2 2 2 3 2 2 2 3 2 2 2 2 1 1 1 1 2 2 1 2 2 2 2 1 2 2 2 2 3 3 3 2 3 3 3 3 4 4 4 4 5 4 4 4
1 1 1 1 0 1 2 2 3 3 3 3 2 1 1 1 1 1 1 1 1 1 1 1 1 2 2 2 2 2 2 2 2 3 3 3 3 3 4 4 4 4 4 4
Wind_Direction
268 290 254 251 247 212 202 205 207 231 240 263 267 256 255 252 256 266 270 268 264 271 287 300 305 310 316 318 327 335 342 338 331 341 355 2 8 8 7 7 6 3 5 3
325 353 290 274 257 230 227 225 228 253 272 263 263 247 246 245 241 249 253 257 260 264 272 275 281 292 302 305 312 326 331 328 336 346 358 0 2 2 4 4 6 6 6 359
295 321 354 286 241 201 205 211 195 219 239 253 257 242 239 237 233 239 246 249 246 244 246 254 258 263 264 276 308 328 331 337 341 342 351 351 353 357 356 354 4 5 1 0
10 22 271 251 200 183 207 239 216 230 244 242 238 264 262 239 228 238 241 242 240 237 241 249 255 257 268 309 344 335 332 331 336 339 337 343 351 345 344 352 357 352 349 353
103 299 282 290 235 180 189 267 220 220 242 249 260 335 293 248 216 223 229 228 225 222 218 224 241 253 234 322 348 334 312 311 317 320 322 333 330 328 342 351 347 343 343 352
126 178 249 253 173 163 120 285 234 195 218 218 150 251 263 238 212 223 227 215 209 204 191 212 242 189 169 237 295 282 283 291 304 307 298 299 304 328 349 343 339 339 337 346
164 225 262 248 159 134 167 245 204 183 197 185 193 218 238 239 233 219 212 206 185 176 193 220 211 162 187 229 257 274 294 305 315 308 292 294 317 339 349 346 346 339 332 333
157 202 254 193 151 190 216 220 175 187 193 195 214 238 252 256 251 232 217 210 187 187 209 215 161 168 206 244 270 305 309 305 310 317 319 334 334 333 349 352 336 326 328 325
193 214 241 178 202 219 198 205 209 202 207 198 215 233 237 242 243 236 221 214 199 194 204 202 184 186 217 256 297 321 319 291 300 323 333 350 334 317 338 339 314 311 320 317
246 258 246 234 242 247 228 226 227 215 208 198 216 228 232 235 235 231 224 215 204 194 212 230 214 215 232 254 180 172 222 264 298 308 323 343 320 293 278 271 271 287 298 301
249 264 283 259 230 232 230 228 231 229 215 209 212 229 228 233 233 227 223 212 197 204 221 232 219 227 239 216 169 190 217 243 282 286 287 290 278 257 257 253 254 266 267 271
223 218 204 236 226 210 209 220 219 216 225 220 211 224 224 229 227 218 216 205 205 216 226 233 223 230 228 195 180 185 206 223 232 248 267 282 296 312 290 280 289 287 288 289
223 213 216 249 251 215 213 222 217 210 215 222 220 216 217 226 225 213 212 206 213 221 226 226 225 234 225 192 185 191 208 215 214 221 235 255 273 286 308 321 308 305 310 311
221 203 245 240 236 226 217 217 206 212 222 219 218 211 209 220 226 220 223 219 214 216 222 218 223 236 219 186 187 200 210 214 207 214 222 231 240 250 260 284 308 312 316 314
221 212 226 236 235 231 218 198 204 225 225 226 212 207 204 211 223 229 225 206 197 212 222 216 227 240 197 180 189 199 202 211 208 210 216 228 239 248 256 262 276 294 310 314
216 216 223 231 234 229 217 213 217 229 224 220 216 215 212 212 221 228 215 187 192 219 223 217 230 231 182 182 191 200 209 216 204 205 214 225 232 239 248 255 265 275 280 288
202 220 217 226 230 227 221 219 219 223 220 218 218 210 197 196 215 230 227 212 214 229 226 220 230 213 184 187 191 199 202 208 201 205 216 223 227 232 240 246 255 265 270 279
219 223 215 214 218 222 226 222 219 218 218 216 199 186 191 201 217 225 221 206 219 246 241 228 219 195 192 195 194 193 191 198 200 211 219 223 230 233 235 242 251 262 277 288
223 228 229 226 220 213 217 220 219 216 212 195 190 201 207 212 216 215 193 192 213 238 243 216 209 190 199 202 188 184 187 195 206 216 219 228 235 235 235 242 251 256 265 272
227 225 225 228 221 211 215 215 205 204 201 189 190 199 210 214 204 196 192 214 225 225 213 195 199 200 202 200 187 185 191 197 206 213 214 221 233 240 241 244 249 255 257 259
227 223 217 215 219 220 213 201 191 198 194 183 190 202 210 211 195 188 196 233 239 209 201 202 201 205 199 191 186 187 193 201 207 212 214 221 231 239 243 245 248 252 255 259
221 216 213 208 205 212 213 193 187 191 190 190 193 192 194 203 200 206 220 229 230 193 200 210 210 208 201 188 186 192 199 204 210 213 217 220 225 235 242 245 248 253 254 256
213 209 204 200 198 190 172 175 183 186 196 198 195 196 200 204 195 199 233 227 204 210 212 217 217 211 192 177 186 195 204 210 216 219 224 226 228 233 240 245 248 251 254 257
204 198 185 163 144 152 187 210 189 185 192 199 203 199 188 192 214 220 216 190 197 213 219 219 216 203 179 179 188 199 210 217 221 224 228 232 235 238 242 245 250 251 252 255
183 170 161 159 171 191 194 169 149 159 168 190 207 203 200 196 201 201 185 195 200 199 211 214 203 187 178 185 193 202 211 217 221 224 227 233 238 242 245 247 249 253 254 254
171 180 186 186 183 169 162 163 177 183 176 192 222 205 189 179 177 175 179 192 196 193 189 188 183 180 185 192 202 208 212 217 221 225 229 236 241 245 250 253 254 256 259 260
104 116 125 120 156 166 169 177 186 196 193 192 207 194 170 157 149 153 160 162 168 178 183 181 181 184 188 195 206 213 215 220 225 232 236 239 243 248 252 253 257 260 261 261